Theta_e
285 286 286 287 287 287 287 288 288 287 287 286 286 285 285 285 286 286 286 286 287 288 287 287 287 287 288 288 288 288 288 287 287 287 288 288 288 288 288 288 288 288 287 287 287 287 286 286 286 286 285 285 284 284 284 284 283 283 283 283 283 283
285 285 286 286 286 286 287 287 288 287 287 287 287 287 286 286 286 285 285 286 286 286 286 287 287 287 288 288 288 287 287 287 287 287 287 288 288 288 288 288 288 287 287 287 287 286 286 286 285 285 285 284 284 284 283 283 283 282 282 282 282 282
285 285 285 286 286 286 286 287 286 287 287 287 287 286 287 287 287 286 286 285 286 285 286 286 286 286 287 287 287 287 287 287 287 287 287 287 287 287 287 287 287 287 287 287 286 286 285 285 285 285 284 284 283 283 283 282 282 282 282 282 281 281
285 285 285 285 285 285 285 286 286 286 285 286 286 286 287 286 287 286 286 285 285 285 286 286 285 286 286 286 286 286 286 286 286 287 286 286 287 287 287 287 287 287 287 287 286 286 286 285 285 284 284 283 283 283 283 282 281 281 282 281 280 280
283 284 284 285 285 284 284 285 285 285 285 285 285 285 285 286 286 286 286 285 285 285 285 285 285 285 285 285 286 286 286 287 286 286 286 286 286 286 287 287 287 287 287 286 286 286 285 285 284 284 283 283 283 283 282 282 281 281 281 281 280 280
283 283 283 284 284 284 284 284 285 285 285 285 285 285 285 286 286 286 286 286 285 285 284 284 284 284 285 285 285 285 286 287 287 286 285 286 286 285 286 286 287 286 286 286 286 286 285 285 284 284 283 283 283 283 282 282 281 281 282 281 280 280
282 282 283 283 283 284 284 284 284 284 284 284 284 284 285 286 286 286 286 286 286 286 285 285 285 284 284 284 285 285 286 286 287 286 286 285 285 285 285 285 286 286 286 285 285 285 285 285 284 284 283 283 283 283 283 282 282 281 281 281 281 281
282 282 282 283 283 284 284 284 284 284 284 284 284 284 285 285 286 285 286 286 285 285 285 285 285 285 285 285 285 285 286 286 286 286 286 286 285 285 285 285 285 285 285 285 286 286 285 285 285 284 284 283 283 283 283 282 282 281 281 281 281 281
282 282 282 283 283 284 284 284 283 284 284 284 284 284 284 285 285 285 285 285 285 285 285 285 284 284 284 284 285 285 285 285 286 286 286 286 286 285 285 285 284 285 285 285 285 285 285 285 285 284 284 283 283 283 282 282 282 281 281 281 281 281
281 282 282 283 283 284 284 284 284 284 283 283 283 284 284 285 284 284 284 284 284 284 284 285 285 285 284 284 284 285 285 285 285 285 285 286 285 285 285 285 284 284 284 285 285 285 285 285 284 284 284 283 283 283 282 282 282 281 281 281 281 281
281 281 282 283 283 283 283 283 283 283 283 283 283 283 283 284 284 284 284 284 284 284 285 285 285 285 285 285 284 284 284 285 285 285 285 285 285 285 285 285 285 284 283 284 284 284 285 284 284 284 284 283 283 283 282 282 282 281 280 280 280 280
282 282 282 282 282 282 283 283 282 282 282 282 282 283 284 284 284 283 283 283 284 284 285 285 284 284 284 284 284 284 284 284 284 285 285 285 285 285 285 285 284 284 284 283 283 284 284 284 284 285 285 285 283 282 282 282 281 281 280 280 280 279
282 282 282 282 282 282 282 282 282 282 281 281 281 282 283 284 283 283 283 283 284 284 284 284 284 284 283 284 284 284 284 283 284 284 284 284 284 284 284 284 284 284 284 283 283 283 283 284 284 286 287 287 286 283 282 281 281 281 280 280 280 279
281 280 280 280 281 281 281 281 281 280 280 281 281 282 283 282 283 282 283 283 284 284 284 284 284 283 283 283 283 283 283 283 283 283 283 283 283 283 283 282 283 283 284 283 283 283 283 283 285 286 287 287 287 286 282 282 281 280 280 280 279 279
280 280 280 280 281 281 281 281 280 280 281 280 281 282 282 282 282 282 282 283 283 283 283 283 283 283 283 283 283 282 282 281 282 282 282 282 283 283 282 282 282 282 283 283 283 283 283 283 286 286 287 287 287 287 285 282 281 280 280 280 279 279
280 280 280 280 281 281 282 281 280 281 281 281 281 281 282 281 281 281 282 282 282 283 283 283 283 282 282 283 283 282 281 280 280 281 281 282 282 282 282 282 282 282 282 282 282 282 283 283 285 286 287 287 287 288 286 282 281 280 280 279 279 279
280 280 280 280 281 281 281 280 280 280 279 280 280 281 281 280 280 280 281 281 281 282 282 282 282 282 282 282 282 282 281 281 280 280 281 281 281 281 282 282 281 281 281 282 282 282 282 282 285 286 286 287 287 288 287 283 281 280 280 280 279 279
280 280 280 281 281 280 279 279 279 278 278 279 279 279 280 279 279 279 280 280 280 280 281 281 281 281 282 282 282 282 282 282 281 281 280 280 280 280 280 280 280 280 281 281 281 281 281 281 284 285 286 287 287 288 286 284 281 280 279 279 279 278
281 280 280 280 280 279 279 278 278 277 276 277 277 278 278 278 278 278 279 279 279 279 280 279 279 279 281 282 282 282 281 282 281 281 281 279 279 279 279 279 280 280 280 280 280 280 280 280 283 285 285 286 287 287 285 284 281 280 279 278 278 278
281 280 280 279 279 279 278 277 276 275 275 275 275 275 276 276 276 277 278 278 278 278 278 278 278 279 281 282 282 281 281 281 281 281 280 279 279 278 278 279 279 279 279 279 279 279 279 280 281 283 285 286 286 286 284 283 282 279 278 278 278 277
279 279 279 278 278 278 276 275 273 274 274 274 274 274 274 274 275 276 276 277 277 277 276 276 277 279 281 281 281 280 279 279 280 280 280 279 278 278 278 278 278 278 278 278 279 280 280 279 280 283 284 285 286 286 285 283 281 279 278 277 276 276
277 277 277 277 277 277 274 273 272 272 273 273 273 272 272 273 274 275 275 275 274 274 274 275 276 279 280 279 278 278 278 279 279 279 279 279 278 277 277 277 277 276 277 277 277 277 278 279 279 280 283 284 285 286 285 283 280 278 277 276 275 274
277 277 276 277 276 275 272 271 271 271 272 272 272 271 272 274 274 274 273 273 272 272 272 274 276 277 277 277 276 276 276 277 277 277 277 278 278 278 277 276 276 276 276 277 277 277 278 278 278 279 282 283 284 286 286 282 280 279 277 275 274 274
274 274 274 274 274 273 271 270 270 271 271 270 270 271 273 273 272 272 271 271 270 271 271 273 275 275 274 273 273 273 273 274 275 276 276 277 277 276 276 277 276 276 276 276 276 276 277 278 279 278 280 282 283 285 286 283 279 279 277 275 274 274
273 273 273 273 272 271 271 268 269 270 270 269 270 271 271 271 270 270 269 269 269 270 270 271 271 270 270 270 271 270 270 272 273 274 275 276 276 275 275 275 276 275 275 275 275 275 275 276 276 279 278 280 282 284 285 286 282 282 278 276 274 274
272 272 272 272 271 269 270 268 268 269 269 269 271 270 269 268 268 268 268 268 268 268 268 268 268 268 268 268 269 269 269 270 271 273 274 275 275 275 275 276 275 275 274 274 275 275 274 274 275 277 279 279 281 283 284 285 285 282 278 277 276 275
270 270 270 271 271 270 268 267 267 267 267 269 269 268 267 267 267 266 266 266 265 266 266 266 266 266 266 266 267 267 269 269 271 271 273 274 275 275 274 275 275 274 274 274 274 275 275 273 273 274 276 279 280 281 283 284 285 283 282 277 276 276
268 268 268 269 269 269 268 267 267 266 268 269 268 267 266 265 265 265 264 264 264 264 264 264 264 264 265 265 266 267 268 269 270 271 272 274 274 275 274 274 275 275 274 274 274 275 275 274 273 273 274 276 278 279 281 283 284 284 282 280 277 277
267 267 267 267 268 268 267 266 266 267 267 267 267 266 264 264 263 263 263 263 263 263 263 262 263 263 264 264 265 267 268 269 270 271 272 273 274 274 274 275 274 274 274 274 274 275 275 274 273 273 273 274 275 276 278 279 281 284 283 280 277 277
266 266 266 266 267 268 267 267 266 266 266 265 265 263 262 262 262 262 262 262 262 262 262 262 263 263 263 263 264 265 266 267 268 269 270 271 272 273 274 274 274 274 274 274 275 275 274 273 273 273 272 273 274 275 276 278 279 281 281 278 276 276
265 265 265 265 266 266 266 265 266 266 265 265 262 261 260 261 261 261 260 261 261 260 261 261 261 262 262 262 263 264 265 266 266 268 269 271 273 274 274 274 275 275 275 275 275 275 274 274 273 273 276 274 276 275 275 276 277 279 280 279 278 275
264 264 264 264 265 265 264 264 264 264 264 262 261 260 260 260 260 259 259 259 259 259 260 260 260 261 261 261 262 262 263 267 270 270 269 270 274 276 279 279 276 277 277 276 276 277 275 275 276 278 278 278 278 279 279 279 280 281 280 279 280 277
263 263 262 263 263 262 262 262 262 262 261 261 261 260 259 259 258 258 259 259 258 259 259 259 259 260 260 260 261 261 262 263 266 271 274 275 275 277 278 279 280 281 282 279 277 278 281 280 280 279 279 279 279 279 280 280 281 282 282 281 277 275
260 260 260 260 260 260 260 259 259 260 259 259 259 259 258 258 258 257 257 258 258 258 259 259 259 259 260 260 261 261 262 263 264 266 272 275 276 277 278 279 280 281 281 282 281 280 278 279 281 281 280 279 280 280 280 280 281 282 282 281 280 273
259 258 258 258 258 257 257 257 257 258 258 258 258 258 257 257 257 256 256 257 257 258 258 259 259 259 260 260 261 262 263 264 265 266 268 272 276 278 278 279 280 281 281 282 282 283 282 280 279 280 280 280 280 280 280 281 281 282 283 282 277 273
257 256 256 256 256 256 256 256 256 257 257 258 258 257 256 256 256 256 256 257 257 258 258 259 259 260 260 261 262 263 264 264 264 264 265 265 266 268 272 275 277 278 280 281 282 282 282 283 282 280 280 280 280 280 281 281 280 282 283 280 275 273
255 255 255 256 256 255 255 255 256 257 257 257 257 256 256 256 256 257 258 259 259 259 259 259 259 260 260 260 260 260 260 261 263 264 264 264 264 266 268 270 273 277 279 278 279 281 282 282 283 282 280 280 280 280 281 281 278 277 278 278 276 273
254 254 255 255 255 254 254 255 256 257 257 257 256 256 256 256 256 257 257 258 258 258 259 259 259 259 259 259 259 260 260 261 261 262 262 263 264 264 264 267 271 274 277 279 279 280 281 282 282 282 281 280 280 280 281 277 276 276 277 276 275 273
Wind_Speed
12 12 13 13 14 13 13 12 13 14 13 12 11 12 9 8 7 7 6 4 4 4 6 6 7 7 7 6 6 6 7 8 8 9 10 8 9 9 9 10 9 10 12 11 10 8 10 8 9 8 8 9 9 9 9 9 10 10 10 9 9 9
9 9 10 11 12 11 11 12 13 16 14 15 14 12 11 11 11 8 8 7 5 5 5 6 6 6 7 7 7 8 9 9 9 9 9 11 8 9 9 11 12 12 12 11 11 10 9 10 9 9 9 8 10 9 9 10 11 11 11 10 9 8
7 8 8 9 10 10 11 12 13 13 14 15 15 15 15 15 13 11 9 7 7 6 7 7 7 7 6 7 8 9 9 9 9 9 10 7 9 8 9 10 11 11 12 11 13 12 11 11 11 9 9 10 10 10 10 9 12 13 11 10 11 9
7 7 7 6 8 10 12 11 12 14 14 12 13 15 16 16 15 12 11 8 7 8 8 7 6 6 6 7 8 9 9 9 9 9 8 10 10 9 10 11 10 11 11 11 11 11 10 10 11 10 10 11 12 11 10 11 12 13 12 11 12 12
5 5 7 9 10 11 11 12 12 11 11 13 12 13 12 11 12 12 10 10 9 9 8 7 7 6 7 8 8 9 9 9 9 8 10 10 10 9 9 10 11 11 11 11 10 11 10 11 10 10 11 12 13 12 11 11 11 12 13 13 13 13
11 14 17 17 17 17 16 13 12 11 11 11 11 12 12 12 11 11 11 11 12 10 9 9 7 7 7 8 8 9 9 9 8 8 10 10 9 9 8 11 11 10 12 11 11 10 11 11 11 11 11 12 12 13 13 11 10 11 13 12 12 13
14 12 11 11 11 12 13 14 14 13 14 14 14 13 13 13 12 13 13 13 14 13 12 12 10 9 9 8 8 9 9 9 9 8 10 9 10 10 8 9 9 10 10 11 11 12 12 12 12 12 12 12 13 14 16 15 13 11 12 11 11 11
9 10 10 9 9 9 9 10 11 11 11 13 11 12 13 13 12 12 13 12 13 13 14 13 12 12 12 11 10 10 9 9 8 9 9 9 11 10 10 10 10 12 13 12 14 14 13 12 12 14 16 16 16 15 15 15 15 13 11 11 11 12
13 11 10 10 9 9 8 8 9 9 9 11 12 11 10 10 11 11 11 12 12 13 14 13 13 12 11 10 10 10 10 9 8 8 9 9 10 10 10 10 11 11 12 14 13 14 14 14 15 16 16 15 15 15 13 15 14 13 11 12 11 10
6 7 8 10 10 11 10 9 9 9 9 9 9 9 9 9 10 10 11 10 10 11 12 13 12 11 11 10 10 10 9 9 8 8 8 8 9 10 11 11 12 12 12 13 12 13 12 13 14 15 12 11 11 12 14 16 15 11 11 11 11 11
4 5 6 6 6 7 7 7 9 9 9 9 10 10 10 9 9 9 9 9 9 9 9 10 10 11 12 11 10 10 10 10 10 9 8 8 8 8 10 10 10 11 12 11 12 12 12 13 14 12 11 11 13 14 16 16 15 11 11 11 10 11
6 5 5 4 5 6 7 7 7 7 8 9 10 10 11 10 10 10 10 10 9 9 9 9 9 10 11 12 12 11 10 9 9 8 7 9 8 8 9 9 10 11 12 11 12 12 11 13 11 14 19 16 15 15 14 13 15 14 13 13 11 11
6 7 8 8 9 9 8 8 7 6 6 7 7 8 8 7 9 9 9 10 9 9 9 8 9 10 11 11 11 10 11 11 9 8 7 6 6 7 8 9 10 10 10 12 12 13 13 12 11 16 18 22 22 15 15 14 14 14 15 15 16 12
6 7 7 6 5 4 4 5 5 5 7 8 9 9 8 7 7 8 9 9 9 9 10 10 10 10 11 10 11 12 12 11 11 11 10 9 8 7 5 8 10 10 10 10 11 13 13 13 13 17 20 22 24 20 14 13 13 13 15 15 15 10
5 5 6 6 7 6 6 5 6 6 6 8 8 7 7 7 8 8 8 8 9 10 10 10 10 10 10 9 9 9 9 10 11 11 11 11 9 7 7 9 9 10 10 11 12 13 13 13 12 17 20 22 23 24 19 13 13 13 14 15 16 12
5 5 5 6 6 5 5 4 5 5 6 7 8 8 8 9 9 8 8 7 7 8 9 10 10 10 10 10 10 9 8 9 9 10 9 9 9 8 8 8 9 9 10 11 12 12 12 13 11 17 20 21 23 24 21 14 14 14 14 16 16 11
5 5 6 5 6 5 5 6 5 6 7 7 8 8 8 9 9 9 9 9 9 8 8 9 9 9 10 10 9 9 9 9 9 9 8 7 8 8 9 9 9 9 9 9 10 11 12 11 13 17 20 21 23 25 21 15 14 13 13 12 11 11
7 6 7 5 4 5 3 4 3 6 8 8 8 8 7 7 8 10 9 9 9 9 9 9 11 10 9 9 8 9 10 10 10 10 9 7 8 7 7 8 8 10 11 10 10 10 12 11 13 17 19 22 23 25 16 13 14 14 13 13 13 11
7 7 6 6 5 5 5 3 3 5 7 8 7 7 8 7 8 9 9 8 10 10 11 11 12 13 11 9 9 9 9 9 10 10 7 8 8 8 8 8 8 8 9 10 10 10 11 11 12 17 19 21 24 19 13 12 12 12 13 13 13 11
6 6 6 7 7 6 4 3 4 6 7 7 7 8 9 9 9 9 8 9 9 11 11 11 12 14 13 11 11 11 11 10 8 8 7 8 10 9 9 8 8 9 9 10 11 11 11 11 10 16 19 21 23 19 14 11 12 13 13 12 11 6
7 7 6 6 8 7 3 3 4 5 7 8 8 7 9 9 10 9 9 10 11 11 11 11 12 13 12 12 12 12 13 13 11 10 8 8 8 9 9 8 8 9 8 9 11 10 12 11 10 14 18 21 23 19 13 12 11 12 12 9 5 5
4 6 7 8 9 6 4 2 4 5 8 9 7 8 9 10 10 9 9 10 10 10 11 11 13 13 11 12 14 13 13 12 12 11 10 10 8 9 8 8 8 11 10 8 9 9 10 11 9 10 18 20 23 25 15 11 11 13 12 8 6 7
6 8 9 8 7 6 4 3 4 8 8 9 9 10 9 10 10 9 9 10 12 12 13 12 12 13 13 12 13 13 13 12 13 13 13 12 10 8 9 9 9 10 10 9 9 9 9 9 10 9 17 20 23 25 24 11 13 11 10 10 10 8
6 7 9 8 7 7 3 3 6 9 8 8 11 10 8 9 7 7 7 10 11 12 12 12 11 11 12 13 13 13 15 14 13 13 13 12 11 13 13 11 9 9 9 8 8 9 10 9 12 9 13 19 22 23 28 16 12 13 11 12 12 9
8 9 10 9 5 4 4 4 8 10 10 11 13 8 7 7 6 8 10 11 12 12 12 11 12 13 12 13 13 14 16 15 14 14 13 13 13 13 14 13 11 10 9 7 6 8 9 9 9 15 12 17 20 23 25 24 14 17 12 12 13 13
7 10 11 11 7 5 4 5 9 11 11 15 10 6 5 5 8 9 11 12 12 13 12 12 12 12 11 11 12 12 15 16 14 13 12 12 12 12 13 12 10 9 10 11 10 8 6 7 7 11 17 15 21 23 26 29 23 20 14 12 12 9
9 11 13 13 10 7 5 5 9 12 15 13 5 7 7 8 9 10 12 13 13 13 12 12 12 13 12 12 11 12 13 15 14 13 12 11 11 11 12 13 11 10 11 11 11 9 5 5 6 6 12 20 20 22 25 28 27 26 23 14 11 9
8 11 13 16 14 11 6 7 7 12 15 10 7 8 6 8 11 13 14 14 13 13 13 14 15 14 12 14 11 12 11 13 13 13 13 12 11 12 12 13 12 11 11 12 11 10 9 6 6 6 7 11 15 16 22 27 27 26 27 20 13 16
10 13 14 16 17 12 8 7 7 9 10 11 9 7 7 8 11 13 14 15 14 13 12 12 12 13 13 12 11 10 11 11 12 12 13 12 12 13 12 12 12 12 12 12 12 11 9 8 7 6 6 7 7 9 11 16 18 22 25 17 11 13
11 13 14 16 17 13 11 11 11 10 9 8 6 6 7 11 12 13 15 16 14 13 12 11 15 16 14 12 12 11 12 11 12 12 14 13 13 12 13 12 12 13 13 13 12 10 9 10 9 8 7 7 8 9 11 11 12 11 12 11 11 11
13 14 15 17 15 13 14 14 13 11 9 8 6 6 9 14 15 14 15 15 12 14 11 10 12 11 13 13 12 11 12 13 14 14 15 16 14 13 13 13 14 14 13 12 11 11 11 11 11 11 10 12 15 12 9 10 12 12 11 13 16 12
13 15 17 17 14 14 14 15 14 11 8 7 7 8 12 14 14 15 15 13 11 12 11 11 11 12 11 12 13 14 14 20 26 21 17 17 22 28 29 23 17 16 12 12 13 12 13 14 12 8 16 20 20 21 23 20 20 18 12 17 26 16
15 15 17 16 13 13 14 15 15 12 10 8 9 10 13 14 14 14 15 12 12 12 13 12 12 12 12 11 13 13 15 15 16 25 31 31 30 29 29 30 32 33 31 21 15 14 21 23 19 14 17 20 22 25 26 25 24 25 22 25 20 15
17 16 17 16 16 17 18 17 18 15 13 11 11 11 13 13 13 13 14 13 13 14 13 11 13 14 13 13 11 12 15 16 16 17 20 26 27 28 28 28 30 31 30 31 27 20 12 17 24 22 19 21 23 25 26 26 26 27 25 29 28 14
15 14 15 16 17 19 19 19 18 15 13 13 13 14 15 15 14 15 15 13 13 13 15 16 15 16 15 14 14 13 13 15 15 15 14 12 16 21 22 23 25 27 28 29 30 31 26 19 15 23 24 23 23 25 26 27 28 28 28 31 21 15
14 17 16 18 19 20 18 19 18 15 15 16 15 15 14 15 14 15 12 12 13 14 15 15 14 14 15 14 14 14 11 11 11 13 13 13 12 13 19 24 28 29 28 27 28 28 28 28 27 24 24 24 24 25 26 26 21 27 29 27 17 15
16 16 18 19 20 18 20 18 17 15 15 15 15 15 16 16 16 14 17 26 23 16 16 15 15 15 15 15 16 14 15 16 15 14 15 15 17 18 17 13 12 17 23 19 19 23 27 27 27 26 24 25 25 25 26 26 16 16 17 20 15 13
17 15 16 18 17 17 19 18 16 15 15 15 15 15 16 14 15 14 13 13 16 15 15 13 13 12 13 14 14 15 16 16 15 15 15 16 16 16 16 19 15 10 12 24 26 28 26 27 27 25 25 23 25 25 25 15 13 14 13 14 13 13
Wind_Direction
13 12 12 11 16 14 15 14 15 21 27 20 14 6 345 326 323 316 308 288 262 252 244 232 230 222 223 223 220 220 224 225 219 216 220 213 205 202 195 193 190 192 199 204 207 201 205 201 203 198 200 194 197 193 195 183 182 188 192 188 185 185
15 14 14 13 13 15 13 14 16 21 17 18 15 11 10 2 358 340 318 306 281 271 262 258 244 240 232 225 219 221 222 223 221 221 220 221 209 209 199 200 200 199 198 197 196 198 201 200 199 195 199 195 206 194 195 188 182 191 193 188 188 178
17 14 15 15 12 15 17 18 20 18 16 15 11 10 7 9 4 356 343 320 303 281 271 265 259 250 238 238 230 233 230 225 220 222 223 212 214 202 205 204 204 201 202 199 204 200 191 190 194 192 193 199 204 204 201 185 190 192 196 180 187 187
29 26 20 19 22 25 26 20 21 23 22 14 9 7 7 2 0 360 348 341 319 301 284 277 265 257 253 246 242 239 237 234 229 226 219 216 219 200 209 207 204 205 202 203 206 203 202 200 195 187 193 201 202 204 202 200 192 197 192 184 187 185
30 30 31 34 34 31 27 24 22 19 16 13 11 12 6 1 351 350 353 352 344 331 316 302 289 273 261 255 253 250 244 241 237 225 226 226 221 210 211 208 207 204 204 207 206 203 202 199 197 195 196 201 202 204 205 203 196 197 191 190 191 183
15 19 17 13 12 11 12 13 14 13 15 15 12 9 1 359 359 354 359 359 355 350 342 333 319 302 280 267 262 260 256 251 248 232 232 233 225 217 213 214 210 207 208 210 207 202 202 199 201 199 204 207 205 207 208 205 203 204 205 198 185 180
20 19 17 15 10 8 7 7 6 6 5 7 6 1 358 359 358 0 360 359 357 358 360 353 343 332 310 289 278 271 267 262 257 249 240 235 234 227 219 216 209 212 209 210 207 203 205 203 199 202 204 204 208 212 213 210 207 207 209 202 194 186
12 14 11 11 11 10 8 6 5 2 2 2 359 357 354 355 356 357 358 358 358 357 358 357 353 346 335 321 311 294 281 271 261 252 245 235 239 233 225 219 215 215 216 215 215 212 211 206 205 209 210 208 208 210 212 212 210 210 208 205 201 193
4 358 0 2 4 6 6 5 3 3 359 356 355 353 352 349 353 352 357 355 356 355 355 354 353 347 341 331 317 311 302 291 274 257 250 237 237 235 229 224 224 222 223 223 218 218 214 210 211 213 212 211 209 209 208 210 210 207 206 210 205 198
339 350 350 355 358 356 356 360 357 356 356 352 349 348 348 348 349 350 350 352 352 354 350 347 343 345 341 335 328 318 308 299 288 270 259 247 242 237 234 231 227 228 224 226 221 221 216 215 216 215 210 206 202 205 210 210 211 205 207 206 202 200
342 331 339 342 348 355 353 348 351 348 350 352 346 347 347 345 345 345 347 346 349 347 343 339 339 338 339 338 336 332 323 316 305 293 277 260 251 243 240 239 235 233 231 229 227 224 218 220 219 214 207 205 208 210 213 211 210 205 208 208 206 203
334 335 326 336 343 347 347 350 350 348 344 345 345 342 340 343 342 343 341 344 340 338 337 336 334 336 335 337 339 335 330 321 312 303 293 278 261 254 247 245 239 236 235 232 230 227 224 225 224 219 211 204 207 207 211 211 212 209 207 210 208 208
325 331 338 338 346 343 351 345 340 337 337 337 337 330 325 331 326 335 333 332 333 332 334 336 335 334 335 334 332 334 333 331 324 312 294 279 266 259 252 244 247 242 238 236 233 230 229 230 229 220 212 211 207 203 209 210 212 209 211 212 211 209
315 323 320 320 313 313 319 324 324 335 335 336 334 328 322 320 322 323 326 322 327 331 335 336 334 334 330 332 332 331 329 327 326 322 316 308 297 276 261 256 250 249 245 242 240 238 236 236 231 221 218 214 211 205 207 210 213 208 211 211 211 207
283 295 305 308 318 320 319 325 333 332 337 334 324 323 322 323 323 321 319 320 324 330 329 330 331 328 326 327 324 319 319 321 320 319 318 312 302 300 282 262 253 251 248 243 245 244 241 242 226 221 219 216 213 209 203 214 211 211 213 212 212 207
277 276 278 280 286 298 300 326 320 318 334 323 320 326 325 327 325 325 319 319 322 321 324 321 325 322 320 321 322 321 317 316 312 307 303 299 301 293 282 273 261 255 248 245 245 247 246 242 235 225 222 217 214 211 205 214 211 214 215 213 211 204
279 288 293 296 292 300 319 321 327 330 328 328 323 318 321 322 321 321 320 322 323 324 321 321 316 316 315 317 315 318 318 315 308 304 299 298 292 291 286 282 277 263 253 249 245 249 249 245 235 228 225 220 215 213 208 212 214 216 218 215 211 206
277 279 282 276 288 285 290 293 313 336 318 320 313 311 316 316 316 315 319 324 325 325 324 323 320 316 313 307 309 312 315 315 311 306 302 296 288 276 272 273 266 268 264 256 251 250 253 249 234 230 227 222 218 213 212 213 213 217 218 217 214 208
267 266 266 275 274 280 288 299 328 319 313 314 311 314 312 314 310 309 313 316 320 322 325 325 321 317 311 310 310 310 306 309 308 306 302 291 284 284 279 273 265 262 262 259 252 248 251 251 238 234 228 223 220 213 215 214 214 218 219 219 214 209
264 269 263 273 277 269 283 314 334 321 313 307 307 311 308 309 303 304 309 310 316 319 320 321 316 311 310 313 316 314 313 308 300 290 290 289 295 290 276 269 272 263 256 254 253 245 250 249 234 232 232 226 220 213 213 213 214 217 219 219 211 205
250 258 268 270 276 277 282 311 328 317 299 300 303 301 300 300 300 307 312 314 317 317 316 314 309 303 303 311 314 317 314 312 308 303 294 273 261 265 275 272 265 264 253 247 246 243 243 250 238 228 233 229 224 219 216 213 212 216 217 209 193 192
271 278 271 269 270 279 285 306 312 297 294 295 297 295 294 295 295 300 307 310 311 310 309 307 303 299 304 312 313 314 310 307 307 303 299 291 279 273 264 255 256 261 262 249 243 241 239 245 240 222 228 229 226 221 216 213 210 216 212 200 193 190
249 255 261 266 274 283 292 319 306 286 282 283 283 277 278 283 291 301 310 313 311 309 307 305 300 304 309 311 311 309 305 303 303 302 300 294 288 277 270 256 249 247 254 250 244 245 239 234 237 225 222 228 228 226 222 214 215 212 201 201 200 198
269 275 278 272 273 270 268 274 277 276 279 278 271 270 279 279 281 292 300 300 298 297 296 296 299 308 308 308 308 308 303 299 297 295 296 295 291 287 280 274 263 256 251 245 237 241 244 232 226 225 223 227 229 230 227 223 215 204 197 198 204 197
279 274 272 277 269 259 258 257 271 277 279 275 273 284 279 286 297 303 301 296 294 293 293 296 303 301 304 301 302 301 295 294 295 294 293 289 289 285 284 280 274 268 266 259 240 236 236 232 227 224 220 224 229 232 234 227 211 205 200 203 206 203
276 282 284 283 277 264 257 254 272 276 278 273 288 292 288 299 299 298 296 294 292 295 294 296 295 292 291 292 294 292 289 289 289 288 286 287 284 284 281 280 276 269 268 266 263 248 212 220 222 225 223 221 225 233 235 236 219 197 203 206 213 202
285 288 288 287 287 277 265 249 257 270 272 277 300 288 296 295 296 296 292 291 290 289 291 292 289 289 289 287 289 288 286 287 288 287 283 280 277 273 273 274 272 266 266 267 262 260 230 205 215 219 226 225 223 229 235 238 230 212 201 201 211 200
289 287 287 290 287 284 271 259 244 263 271 285 287 289 291 293 294 293 289 288 286 286 291 292 289 285 283 284 281 277 275 277 280 279 280 279 271 268 266 268 268 265 263 263 262 258 250 225 210 218 215 222 226 227 235 238 240 222 209 196 192 191
293 290 289 289 289 291 285 270 261 259 276 285 290 291 290 289 287 287 287 284 285 286 284 284 287 290 289 282 280 273 273 271 273 273 273 270 268 268 265 263 263 263 260 258 259 259 253 238 226 210 199 204 216 216 223 232 242 230 215 203 184 180
286 287 289 287 288 296 294 287 281 279 281 283 288 295 295 287 283 283 283 283 285 284 284 283 283 284 283 281 279 280 277 270 267 267 265 266 264 262 263 260 257 254 254 257 257 258 253 246 237 221 196 195 201 214 214 224 230 227 203 194 182 173
295 291 289 285 290 295 293 289 286 287 290 293 300 298 294 289 288 284 280 279 282 281 280 276 278 276 279 279 277 266 265 272 272 267 267 259 256 255 257 259 258 254 250 251 252 251 251 249 241 229 204 209 208 206 206 213 218 220 208 184 169 161
294 294 293 292 296 295 292 292 291 293 299 304 300 296 289 289 289 286 282 280 278 278 280 279 275 274 275 277 278 281 279 268 266 264 262 267 261 258 257 255 254 252 252 251 247 236 242 246 245 221 207 215 214 215 216 217 217 218 202 180 177 162
302 301 296 296 302 298 298 296 296 298 302 304 295 291 286 285 285 282 280 279 278 279 281 281 281 279 277 273 275 273 275 283 278 266 263 262 263 263 262 261 260 260 257 251 255 246 238 244 246 223 212 213 217 220 220 220 218 218 204 180 174 172
310 306 303 305 304 301 299 297 295 299 304 301 292 283 280 277 276 277 278 280 280 282 278 277 279 280 276 272 266 266 271 271 276 279 266 263 263 262 263 261 260 259 257 254 252 253 246 243 245 238 223 216 218 219 220 220 217 218 204 183 175 173
306 303 303 303 301 299 297 296 295 301 300 295 289 283 278 274 271 273 276 276 278 277 278 280 280 280 279 278 277 275 270 267 266 270 284 280 275 276 271 266 264 262 259 255 253 251 251 242 225 233 231 227 223 219 218 218 217 217 208 186 183 185
301 300 299 297 294 291 291 290 293 296 291 290 285 281 274 273 269 268 268 274 275 277 277 278 277 277 278 277 270 268 278 290 297 294 293 294 293 286 277 273 269 266 262 259 256 255 250 250 241 230 226 222 222 220 218 217 218 218 211 191 191 185
296 294 293 291 292 291 290 287 289 288 284 282 279 276 276 274 272 271 269 272 277 277 277 275 274 274 275 276 280 287 289 284 284 286 287 285 284 284 283 280 256 249 253 255 257 258 255 247 246 231 220 221 220 218 217 216 216 217 217 199 190 186
291 289 289 290 289 287 286 285 286 281 280 279 275 273 272 273 271 271 270 270 270 271 272 271 270 266 265 267 268 269 269 270 270 268 267 267 267 271 277 280 276 264 241 247 251 253 252 246 244 234 217 218 216 216 213 211 210 217 212 200 190 182